Regional Weather Roundup
Issued by NWS

Home | Current Version | Previous Version | Graphics & Text | Print | Product List | Glossary On
Versions: 1 2 3 4 5 6 7 8 9 10 11 12 13 14 15 16 17 18 19 20 21 22 23 24 25 26 27 28 29 30 31 32 33 34 35 36 37 38 39 40 41 42 43 44 45 46 47 48 49 50
000
ASUS43 KMKX 310600
RWRWI

WISCONSIN REGIONAL WEATHER ROUNDUP
NATIONAL WEATHER SERVICE MILWAUKEE/SULLIVAN WI
100 AM CDT TUE MAY 31 2016

NOTE: "FAIR" INDICATES FEW OR NO CLOUDS BELOW 12,000 FEET WITH NO
SIGNIFICANT WEATHER AND/OR OBSTRUCTIONS TO VISIBILITY.

WIZ001-002-006>008-014>016-023>028-310700-
NORTHWEST WISCONSIN

CITY           SKY/WX    TMP DP  RH WIND       PRES   REMARKS
SUPERIOR ARPT  CLOUDY    49  44  84 NE16G25   29.99S
ASHLAND        CLOUDY    53  45  74 NE16      30.02F
6HR MIN TEMP:  53; 6HR MAX TEMP:  74; 6HR PCP: TRACE;

HAYWARD        CLOUDY    61  50  67 NE8       29.97F
6HR MIN TEMP:  58; 6HR MAX TEMP:  77;

SIREN          CLOUDY    66  54  65 SE3       29.92F
CUMBERLAND     CLOUDY    64  54  68 E3        29.94F
RICE LAKE      CLOUDY    67  55  64 E5        29.95F
CHETEK         CLOUDY    67  58  72 E8        29.94F
LADYSMITH      CLOUDY    59  56  89 E5        29.99S
EAU CLAIRE     CLOUDY    68  55  63 S9        29.94S
6HR MIN TEMP:  64; 6HR MAX TEMP:  79; 6HR PCP:  0.01;

MENOMONIE      MOCLDY    67  55  63 SE5       29.93F
NEW RICHMOND   CLOUDY    68  51  54 S7        29.92F
OSCEOLA        PTCLDY    70  52  52 S10       29.93F
$$

WIZ003>005-009-010-017-018-310700-
NORTH CENTRAL WISCONSIN

CITY           SKY/WX    TMP DP  RH WIND       PRES   REMARKS
MANITOWISH WTR NOT AVBL
ARBOR VITAE    CLOUDY    62  48  60 NE6       30.02S
WOODRUFF       CLOUDY    62  48  60 NE6       30.02S
RHINELANDER    CLOUDY    60  46  59 E5        30.02R
6HR MIN TEMP:  57; 6HR MAX TEMP:  75; 6HR PCP: TRACE;

EAGLE RIVER      N/A     56  46  70 NE5       30.03R
LAND O LAKES   CLOUDY    57  47  69 NE5       30.05R
PHILLIPS       PTCLDY    55  53  94 NE6       29.99R
TOMAHAWK       CLOUDY    55  53  93 CALM      30.01R
MEDFORD        CLOUDY    60  55  83 S3        29.99S
MERRILL        CLOUDY    55  54  97 CALM      30.00S
$$

WIZ029-030-035-036-043>047-310700-
CENTRAL WISCONSIN

CITY           SKY/WX    TMP DP  RH WIND       PRES   REMARKS
WAUSAU         CLOUDY    61  55  81 E5        29.98R
6HR MIN TEMP:  60; 6HR MAX TEMP:  77;

MOSINEE        CLOUDY    59  52  77 S3        30.01R
MARSHFIELD     PTCLDY    65  51  60 CALM      29.97F
6HR MIN TEMP:  64; 6HR MAX TEMP:  79;

STEVENS POINT  PTCLDY    57  53  86 CALM      30.00S
WAUPACA        CLOUDY    61  60  95 CALM      29.99R
WAUTOMA        CLOUDY   N/A N/A N/A CALM      29.99S
WISC RAPIDS    CLOUDY    63  50  62 SE7       29.99F
6HR MIN TEMP:  60; 6HR MAX TEMP:  80;

CAMP DOUGLAS   NOT AVBL
$$

WIZ011>013-019>022-031-037>040-048>050-310700-
NORTHEAST WISCONSIN

CITY           SKY/WX    TMP DP  RH WIND       PRES   REMARKS
ANTIGO         PTCLDY    56  54  91 CALM      30.01S
SHAWANO        CLOUDY    59  56  88 CALM      29.99R
OCONTO         PTCLDY    61  61 100 NE9       30.00R
STURGEON BAY   NOT AVBL
GREEN BAY      MOCLDY    64  56  75 S5        29.99R
6HR MIN TEMP:  62; 6HR MAX TEMP:  80;

MANITOWOC      NOT AVBL
APPLETON       CLOUDY    63  55  77 CALM      29.98S
CLINTONVILLE   CLOUDY    59  54  82 CALM      29.98S
OSHKOSH        CLOUDY    64  57  78 S7        29.99R
6HR MIN TEMP:  62; 6HR MAX TEMP:  76;

$$

WIZ032>034-041-042-053>061-310700-
SOUTHWEST WISCONSIN

CITY           SKY/WX    TMP DP  RH WIND       PRES   REMARKS
LA CROSSE      LGT RAIN  68  60  75 S13       29.99R
6HR MIN TEMP:  67; 6HR MAX TEMP:  81; 6HR PCP:  0.05;

SPARTA         RAIN      64  58  82 S5        30.02R
VIROQUA        CLOUDY    64  59  83 S9        30.03R
BOSCOBEL       LGT RAIN  65  61  87 W5        30.01R
6HR MIN TEMP:  65; 6HR MAX TEMP:  80; 6HR PCP:  0.01;

PRAIRIE DU CHI LGT RAIN  63  61  95 W7        30.00F
PLATTEVILLE    CLOUDY    70  57  63 W6        30.00R
$$

WIZ056-057-062-063-064-067-068-310700-
SOUTH CENTRAL WISCONSIN

CITY           SKY/WX    TMP DP  RH WIND       PRES   REMARKS
REEDSBURG      CLOUDY    64  57  78 CALM      29.96F
BARABOO/DELLS  CLOUDY    65  53  65 CALM      29.97F
LONE ROCK      NOT AVBL
MINERAL POINT  CLOUDY    68  52  56 CALM      30.00R
MADISON        CLOUDY    68  57  68 SE8       29.97F
6HR MIN TEMP:  64; 6HR MAX TEMP:  79;

MIDDLETON      CLOUDY    68  57  68 SE5       29.99S
WATERTOWN      PTCLDY    62  58  88 E6        29.99S
MONROE         CLOUDY    66  54  63 E7        29.98S
JANESVILLE     MOCLDY    66  55  68 E6        29.98S
$$

WIZ051-052-058>065-066-070>072-310700-
SOUTHEAST WISCONSIN

CITY           SKY/WX    TMP DP  RH WIND       PRES   REMARKS
MILWAUKEE      CLOUDY    61  55  81 CALM      30.00F
6HR MIN TEMP:  60; 6HR MAX TEMP:  70;

WAUKESHA       CLEAR     59  52  77 CALM      30.01F
MILWAUKEE/TIMM CLEAR     63  54  72 CALM      30.01F
RACINE         CLOUDY    61  56  83 CALM      30.01F
6HR MIN TEMP:  59; 6HR MAX TEMP:  70;

BURLINGTON     CLEAR     59  55  85 CALM      30.00F
KENOSHA        CLEAR     59  55  87 SE5       30.00S
6HR MIN TEMP:  58; 6HR MAX TEMP:  74;

FOND DU LAC    PTCLDY    63  58  83 S6        29.99S
6HR MIN TEMP:  63; 6HR MAX TEMP:  80;

SHEBOYGAN      CLOUDY    59  56  89 CALM      30.00S
6HR MIN TEMP:  57; 6HR MAX TEMP:  73;

WEST BEND      CLOUDY    59  55  88 CALM      30.01S
JUNEAU         CLOUDY    63  57  81 E7        30.01S
$$

LSZ147-162-310700-
LAKE SUPERIOR

STATION/POSITION TIME  TEMP    WIND        PRES    WAVE
                       AIR SEA DIR/SP/G            HT/PER
                 (UTC) (F)     (DEG/KT/KT) (MB)    (FT/S)
W MID LAKE BUOY  0450   43 38   90/ 14/ 16 1019.0R   2/ 4
DEVILS ISLAND    0500   47      90/ 24/ 27 1018.7R
SAXON HARBOR     0500   54      60/ 17/ 20 1016.3F
$$

LMZ867-665-643>646-310700-
LAKE MICHIGAN

STATION/POSITION TIME  TEMP    WIND        PRES    WAVE
                       AIR SEA DIR/SP/G            HT/PER
                 (UTC) (F)     (DEG/KT/KT) (MB)    (FT/S)
CHAMBERS ISLAND  0500   60      10/ 18/ 21 1016.3S
N MID LAKE BUOY  0450   55 50   20/  8/ 10 1016.2R   1
NORTHPORT PIER   0500   59      10/ 14/ 18 1016.3R
KEWAUNEE LAKESHO 0500   60     150/  2/  5 1014.6F
SHEBOYGAN LAKESH 0500   64     220/  6/  6 1016.0F
PORT WASHINGTON  0500   59     260/  1/  2 1016.6
S MID LAKE BUOY  0450   62 57  110/  4/  6 1015.6R   0
KENOSHA   LAKESH 0500   62      CALM  /  1 1015.9S
$$

TC  - TEMPERATURE IN CELSIUS
VSB - VISIBILITY IN STATUTE MILES
WCI - WIND CHILL INDEX
HX  - HEAT INDEX





USA.gov is the U.S. government's official web portal to all federal, state and local government web resources and services.